"datetime","# probes","# resolvers","can_ipv6","can_ipv6_prbs","can_tcp","can_tcp_prbs","can_tcp6","can_tcp6_prbs","does_ecs","does_ecs_prbs","does_flagday","does_flagday_prbs","does_rov4","does_rov4_prbs","does_rov6","does_rov6_prbs","does_qnamemin","doesnt_qnamemin","does_qnamemin_prbs","doesnt_qnamemin_prbs","does_nxdomain","doesnt_nxdomain","does_nxdomain_prbs","doesnt_nxdomain_prbs","has_ta_19036","hasnt_ta_19036","has_ta_19036_prbs","hasnt_ta_19036_prbs","has_ta_20326","hasnt_ta_20326","has_ta_20326_prbs","hasnt_ta_20326_prbs","can_rsamd5","cannot_rsamd5","broken_rsamd5","can_rsamd5_prbs","cannot_rsamd5_prbs","broken_rsamd5_prbs","can_dsa","cannot_dsa","broken_dsa","can_dsa_prbs","cannot_dsa_prbs","broken_dsa_prbs","can_rsasha1","cannot_rsasha1","broken_rsasha1","can_rsasha1_prbs","cannot_rsasha1_prbs","broken_rsasha1_prbs","can_dsansec3","cannot_dsansec3","broken_dsansec3","can_dsansec3_prbs","cannot_dsansec3_prbs","broken_dsansec3_prbs","can_rsansec3","cannot_rsansec3","broken_rsansec3","can_rsansec3_prbs","cannot_rsansec3_prbs","broken_rsansec3_prbs","can_rsasha256","cannot_rsasha256","broken_rsasha256","can_rsasha256_prbs","cannot_rsasha256_prbs","broken_rsasha256_prbs","can_rsasha512","cannot_rsasha512","broken_rsasha512","can_rsasha512_prbs","cannot_rsasha512_prbs","broken_rsasha512_prbs","can_eccgost","cannot_eccgost","broken_eccgost","can_eccgost_prbs","cannot_eccgost_prbs","broken_eccgost_prbs","can_ecdsa256","cannot_ecdsa256","broken_ecdsa256","can_ecdsa256_prbs","cannot_ecdsa256_prbs","broken_ecdsa256_prbs","can_ecdsa384","cannot_ecdsa384","broken_ecdsa384","can_ecdsa384_prbs","cannot_ecdsa384_prbs","broken_ecdsa384_prbs","can_ed25519","cannot_ed25519","broken_ed25519","can_ed25519_prbs","cannot_ed25519_prbs","broken_ed25519_prbs","can_ed448","cannot_ed448","broken_ed448","can_ed448_prbs","cannot_ed448_prbs","broken_ed448_prbs","can_gost","cannot_gost","broken_gost","can_gost_prbs","cannot_gost_prbs","broken_gost_prbs","can_sha384","cannot_sha384","broken_sha384","can_sha384_prbs","cannot_sha384_prbs","broken_sha384_prbs","is_internal","is_forwarding","is_external","is_internal_prbs","is_forwarding_prbs","is_external_prbs"
2017-06-20T23:59:59Z,149,279,279,149,279,149,277,149,6,21,0,0,0,0,0,0,0,279,0,149,0,279,0,149,0,0,0,0,0,0,0,0,252,10,3,124,15,12,257,11,0,129,26,0,258,7,0,131,14,0,256,12,0,129,27,0,258,7,0,131,14,0,258,7,0,131,14,0,259,6,0,131,13,0,0,279,0,1,149,0,259,6,0,131,13,0,258,7,0,131,14,0,0,279,0,0,149,0,0,279,0,0,149,0,3,275,0,12,147,0,259,6,0,132,14,0,252,5,22,130,14,26
2017-06-21T23:59:59Z,154,291,291,154,291,154,288,154,7,21,0,0,0,0,0,0,0,291,0,154,0,291,0,154,0,0,0,0,0,0,0,0,262,11,4,128,16,14,269,11,0,134,27,0,271,6,0,136,13,0,268,12,0,134,28,0,270,7,0,136,14,0,270,7,0,136,14,0,270,7,0,136,14,0,0,291,0,1,154,0,271,6,0,136,13,0,271,6,0,136,13,0,0,291,0,0,154,0,0,291,0,0,154,0,1,289,0,11,152,0,271,6,0,136,13,0,260,5,26,134,14,27
2017-06-22T23:59:59Z,153,290,290,153,290,153,286,153,4,18,0,0,0,0,0,0,0,290,0,153,0,290,0,153,0,0,0,0,0,0,0,0,262,9,5,127,13,15,268,11,0,133,26,0,270,6,0,136,12,0,268,11,0,133,26,0,271,5,0,136,11,0,271,5,0,136,11,0,271,5,0,136,11,0,0,290,0,1,153,0,270,6,0,136,12,0,270,6,0,136,12,0,0,290,0,0,153,0,0,290,0,0,153,0,3,286,0,13,149,0,270,6,0,136,12,0,257,5,28,132,14,27
2017-06-23T23:59:59Z,155,292,292,155,291,155,289,155,7,20,0,0,0,0,0,0,0,292,0,155,0,292,0,155,0,0,0,0,0,0,0,0,263,10,5,128,14,15,269,12,0,134,27,0,272,6,0,137,12,0,270,11,0,135,27,0,272,6,0,137,12,0,272,6,0,137,12,0,271,7,0,137,13,0,0,292,0,1,155,0,272,6,0,137,12,0,271,7,0,137,13,0,0,292,0,0,155,0,0,292,0,0,155,0,3,288,0,13,152,0,272,6,0,138,13,0,257,6,29,133,15,27
2017-06-24T23:59:59Z,155,291,291,155,290,155,285,155,8,21,0,0,0,0,0,0,0,291,0,155,0,291,0,155,0,0,0,0,0,0,0,0,261,11,5,128,15,15,267,13,0,134,28,0,271,6,0,137,12,0,268,12,0,134,27,0,271,6,0,137,12,0,271,6,0,137,12,0,270,7,0,137,13,0,0,291,0,1,155,0,270,7,0,137,13,0,270,7,0,137,13,0,0,291,0,0,155,0,0,291,0,0,155,0,2,288,0,12,152,0,272,5,0,138,12,0,256,7,28,133,16,27
2017-06-25T23:59:59Z,155,290,290,155,290,155,290,155,7,21,0,0,0,0,0,0,1,289,1,154,0,290,0,155,0,0,0,0,0,0,0,0,258,12,5,127,16,16,264,15,0,133,30,1,267,8,0,136,14,1,265,14,0,133,29,1,267,8,0,136,14,1,268,7,0,136,13,1,267,8,0,136,14,1,0,290,0,1,155,1,268,7,0,136,13,1,267,8,0,136,14,1,0,290,0,0,155,1,0,290,0,0,155,1,2,286,0,12,151,1,269,6,0,137,13,1,258,7,25,133,16,26
2017-06-26T23:59:59Z,154,290,290,154,290,154,273,153,6,20,0,0,0,0,0,0,0,290,0,154,0,290,0,154,0,0,0,0,0,0,0,0,262,9,5,128,14,15,267,12,0,134,28,0,271,5,0,137,12,0,267,12,0,134,28,0,271,5,0,137,12,0,270,6,0,137,13,0,271,5,0,137,12,0,0,290,0,1,154,0,271,5,0,137,12,0,271,5,0,137,12,0,0,290,0,0,154,0,0,290,0,0,154,0,2,286,0,12,150,0,270,6,0,137,13,0,258,6,26,133,16,27
2017-06-27T23:59:58Z,154,290,290,154,290,154,277,153,5,20,0,0,0,0,0,0,0,290,0,154,0,290,0,154,0,0,0,0,0,0,0,0,262,9,5,129,15,15,268,11,0,134,27,0,272,4,0,138,12,0,268,11,0,134,27,0,271,5,0,137,12,0,270,6,0,137,13,0,271,5,0,137,12,0,0,290,0,1,154,0,271,5,0,137,12,0,271,5,0,137,12,0,0,290,0,0,154,0,0,290,0,0,154,0,3,285,0,13,150,0,271,5,0,137,12,0,258,6,26,133,16,27
2017-06-28T23:59:58Z,152,290,290,152,290,152,283,152,7,20,0,0,0,0,0,0,0,290,0,152,0,290,0,152,0,0,0,0,0,0,0,0,262,9,5,127,13,16,268,11,0,133,26,1,272,4,0,136,10,1,269,10,0,133,25,0,271,5,0,136,11,1,271,5,0,136,11,1,272,4,0,136,10,1,0,290,0,1,152,1,271,5,0,136,11,1,272,4,0,136,10,1,0,290,0,1,152,0,0,290,0,0,152,1,2,286,0,12,148,1,271,5,0,136,11,1,256,5,29,131,14,27
2017-06-29T23:59:59Z,154,291,291,154,291,154,280,153,7,21,0,0,0,0,0,0,1,290,1,153,0,291,0,154,0,0,0,0,0,0,0,0,261,11,5,127,15,15,267,13,0,133,28,0,271,6,0,136,12,0,268,12,0,133,27,0,270,7,0,136,13,0,271,6,0,136,12,0,270,7,0,136,13,0,0,291,0,1,154,0,270,7,0,136,13,0,270,7,0,136,13,0,0,291,0,0,154,0,0,291,0,0,154,0,2,287,0,12,150,0,271,6,0,136,12,0,255,7,29,132,16,27
2017-06-30T23:59:59Z,155,293,293,155,293,155,286,155,7,21,0,0,0,0,0,0,1,292,1,154,0,293,0,155,0,0,0,0,0,0,0,0,264,10,5,128,14,16,270,12,0,134,28,1,273,6,0,137,12,1,269,13,0,134,29,1,272,7,0,137,13,1,272,7,0,137,13,1,273,6,0,137,12,1,0,293,0,1,155,1,273,6,0,137,12,1,272,7,0,137,13,1,0,293,0,0,155,1,0,293,0,0,155,1,2,289,0,13,151,1,274,5,0,138,12,1,257,6,30,132,15,28
2017-07-01T23:59:58Z,152,291,291,152,291,152,277,152,4,18,0,0,0,0,0,0,0,291,0,152,0,291,0,152,0,0,0,0,0,0,0,0,262,10,4,127,13,14,269,10,0,133,25,0,271,5,0,135,11,0,269,10,0,133,25,0,271,5,0,135,11,0,271,5,0,135,11,0,271,5,0,135,11,0,0,291,0,1,152,0,271,5,0,135,11,0,271,5,0,135,11,0,0,291,0,0,152,0,0,291,0,0,152,0,2,287,0,12,149,0,272,4,0,135,10,0,257,4,30,131,14,28
2017-07-02T23:59:59Z,156,297,297,156,297,156,281,155,8,21,0,0,0,0,0,0,0,297,0,156,0,297,0,156,0,0,0,0,0,0,0,0,267,11,4,130,15,15,275,10,0,136,26,1,276,6,0,138,13,1,273,12,0,135,27,1,275,7,0,137,13,1,275,7,0,137,13,1,275,7,0,137,13,1,0,297,0,1,156,1,275,7,0,137,13,1,275,7,0,137,13,1,0,297,0,0,156,1,0,297,0,0,156,1,1,294,0,11,153,1,276,6,0,137,12,1,258,6,33,132,16,30
2017-07-03T23:59:59Z,154,294,294,154,294,154,278,154,7,21,0,0,0,0,0,0,0,294,0,154,0,294,1,154,0,0,0,0,0,0,0,0,266,10,3,129,14,15,271,11,0,134,27,2,273,6,0,136,13,2,271,11,0,134,27,2,274,5,0,136,12,2,274,5,0,136,12,2,274,5,0,136,12,2,0,294,0,1,154,2,274,5,0,136,12,2,273,6,0,136,13,2,0,294,0,0,154,2,0,294,0,0,154,2,2,290,0,12,150,2,273,6,0,136,13,2,256,6,32,130,17,30
2017-07-04T23:59:59Z,158,297,297,158,297,158,275,158,5,20,0,0,0,0,0,0,0,297,0,158,0,297,1,158,0,0,0,0,0,0,0,0,267,10,5,132,15,17,274,11,0,138,27,2,276,6,0,140,13,2,275,10,0,138,26,2,277,5,0,140,12,2,277,5,0,140,12,2,277,5,0,140,12,2,0,297,0,2,158,2,276,6,0,140,13,2,277,5,0,140,12,2,0,297,0,0,158,2,0,297,0,0,158,3,2,293,0,12,155,2,276,6,0,140,13,2,261,5,31,135,16,30
2017-07-05T23:59:59Z,160,301,301,160,301,160,285,160,8,22,0,0,0,0,0,0,1,300,1,159,0,301,1,160,0,0,0,0,0,0,0,0,270,13,3,132,17,16,276,13,0,137,29,2,277,9,0,139,15,2,275,14,0,137,30,2,278,8,0,139,14,2,278,8,0,139,14,2,277,9,0,139,15,2,0,301,0,1,160,2,278,8,0,139,14,2,277,9,0,139,15,2,0,301,0,0,160,2,0,301,0,0,160,2,2,297,0,13,157,2,278,8,0,140,15,2,262,7,32,135,17,32
2017-07-06T23:59:59Z,159,302,302,159,302,159,263,158,8,22,0,0,0,0,0,0,1,301,1,158,0,302,1,159,0,0,0,0,0,0,0,0,273,12,3,134,16,15,278,13,0,139,29,1,280,8,0,141,14,1,278,13,0,139,29,1,280,8,0,141,14,1,280,8,0,141,14,1,281,7,0,141,13,1,0,302,0,1,159,1,280,8,0,141,14,1,281,7,0,141,13,1,0,302,0,0,159,1,0,302,0,0,159,1,2,298,0,13,155,1,281,7,0,141,13,1,264,6,32,136,15,29
2017-07-07T23:59:58Z,159,302,302,159,302,159,302,159,7,21,0,0,0,0,0,0,1,301,1,158,0,302,1,159,0,0,0,0,0,0,0,0,273,11,4,133,15,16,279,12,0,139,28,1,281,7,0,141,13,1,279,12,0,139,28,1,280,8,0,141,14,1,281,7,0,141,13,2,280,8,0,141,14,1,0,302,0,1,159,1,280,8,0,141,14,1,281,7,0,141,13,1,0,302,0,0,159,1,0,302,0,0,159,1,2,298,0,13,156,1,281,7,0,141,13,1,267,6,29,138,15,29
2017-07-08T23:59:59Z,161,305,305,161,305,161,305,161,8,22,0,0,0,0,0,0,1,304,1,160,0,305,1,161,0,0,0,0,0,0,0,0,274,13,4,134,17,16,280,14,0,140,30,1,283,8,0,142,14,1,281,13,0,140,29,1,283,8,0,142,14,1,282,9,0,142,15,1,282,9,0,142,15,1,0,305,0,1,161,1,282,9,0,142,15,1,282,9,0,142,15,1,0,305,0,0,161,1,0,305,0,0,161,1,1,302,0,12,158,1,283,8,0,142,14,1,269,7,29,138,16,29
2017-07-09T23:59:58Z,161,307,307,161,307,161,307,161,7,21,0,0,0,0,0,0,1,306,1,160,0,307,1,161,0,0,0,0,0,0,0,0,275,13,5,134,17,17,282,14,0,140,30,1,285,8,0,142,14,1,283,13,0,140,28,1,284,9,0,142,15,1,284,9,0,142,15,1,285,8,0,142,14,1,0,307,0,1,161,1,285,8,0,142,14,1,285,8,0,142,14,1,0,307,0,0,161,1,0,307,0,0,161,1,1,304,0,12,158,1,285,8,0,142,14,1,271,7,29,139,16,29
2017-07-10T23:59:58Z,163,310,310,163,310,163,309,163,8,23,0,0,0,0,0,0,1,309,1,162,0,310,1,163,0,0,0,0,0,0,0,0,280,12,4,137,17,18,286,13,0,143,31,1,289,7,0,145,14,1,287,12,0,143,30,1,288,8,0,146,15,1,288,8,0,146,15,1,289,7,0,146,14,1,0,310,0,1,163,1,288,8,0,145,15,1,289,7,0,145,14,1,0,310,0,0,163,1,0,310,0,0,163,1,2,306,0,14,159,1,288,8,0,145,15,1,275,7,28,141,18,29
2017-07-11T23:59:59Z,161,306,306,161,306,161,306,161,8,22,0,0,0,0,0,0,1,305,1,160,0,306,1,161,0,0,0,0,0,0,0,0,276,13,4,135,17,16,283,13,0,141,29,1,285,8,0,143,14,1,282,14,0,141,30,1,284,9,0,144,15,1,285,8,0,144,14,1,284,9,0,144,15,1,0,306,0,1,161,1,284,9,0,143,15,1,284,9,0,143,15,1,0,306,0,0,161,1,0,306,0,0,161,1,2,302,0,13,157,1,285,8,0,143,14,1,270,7,29,139,16,29
2017-07-12T23:59:59Z,163,306,306,163,306,163,306,163,10,24,0,0,0,0,0,0,1,305,1,162,0,306,1,163,0,0,0,0,0,0,0,0,274,13,4,135,17,16,280,15,0,141,31,1,282,10,0,143,16,1,279,15,0,141,31,1,282,9,0,143,15,1,282,9,0,143,15,1,282,9,0,143,15,1,0,306,0,1,163,1,282,9,0,142,15,1,282,9,0,142,15,1,0,306,0,0,163,1,0,306,0,0,163,1,1,302,1,12,159,2,281,10,0,143,16,1,267,9,30,137,19,29
2017-07-13T23:59:59Z,161,303,301,160,303,161,301,160,7,22,0,0,0,0,0,0,1,302,1,160,0,303,1,161,0,0,0,0,0,0,0,0,271,13,4,134,18,16,277,15,0,140,32,1,278,11,0,141,17,1,275,16,0,139,32,1,278,10,0,141,16,1,277,11,0,141,17,1,278,10,0,141,16,1,0,303,0,1,161,1,277,11,0,140,17,1,277,11,0,140,17,1,0,303,0,0,161,1,0,303,0,0,161,1,1,300,0,12,158,1,278,10,0,141,16,1,265,7,31,136,18,30
2017-07-14T23:59:59Z,162,304,302,161,304,162,302,161,8,22,0,0,0,0,0,0,1,303,1,161,0,304,1,162,0,0,0,0,0,0,0,0,271,14,5,133,18,17,278,16,0,140,32,1,281,10,0,142,16,1,278,15,0,140,31,1,279,11,0,142,17,1,280,10,0,142,16,1,279,11,0,142,17,1,0,304,0,1,162,1,280,10,0,142,17,1,281,9,0,142,16,1,0,304,0,0,162,1,0,304,0,0,162,1,1,301,0,12,159,1,280,10,0,142,16,1,267,7,30,138,18,31
2017-07-15T23:59:59Z,159,299,297,158,299,159,297,158,8,22,0,0,0,0,0,0,0,299,0,159,0,299,0,159,0,0,0,0,0,0,0,0,266,14,5,131,18,15,273,16,0,137,31,0,276,10,0,140,15,0,273,15,0,137,30,0,276,9,0,140,14,0,276,9,0,140,14,0,275,10,0,140,15,0,0,299,0,1,159,0,275,10,0,139,15,0,275,10,0,139,15,0,0,299,0,0,159,0,0,299,0,0,159,0,2,295,0,12,155,0,276,9,0,140,14,0,262,7,30,135,18,30
2017-07-16T23:59:59Z,158,300,298,157,300,158,298,157,10,24,0,0,0,0,0,0,0,300,0,158,0,300,0,158,0,0,0,0,0,0,0,0,266,15,5,130,17,16,275,15,0,137,29,0,277,9,0,140,14,0,273,16,0,137,30,0,277,9,0,140,13,0,277,9,0,140,13,0,276,10,0,140,14,0,0,300,0,1,158,0,277,9,0,139,13,0,277,9,0,139,13,0,0,300,0,0,158,0,0,300,0,0,158,0,2,296,0,14,154,0,276,10,0,140,14,0,262,7,31,134,17,30
2017-07-17T23:59:59Z,159,297,295,158,297,159,295,158,9,24,0,0,0,0,0,0,0,297,0,159,0,297,0,159,0,0,0,0,0,0,0,0,263,15,5,130,18,16,272,15,0,138,30,0,275,9,0,142,15,0,270,16,0,138,31,0,273,10,0,141,15,0,273,10,0,141,15,0,273,10,0,141,15,0,0,297,0,1,159,0,274,9,0,140,14,0,274,9,0,140,14,0,0,297,0,0,159,0,0,297,0,0,159,0,3,292,0,15,154,0,273,10,0,141,15,0,260,7,30,135,18,31
2017-07-18T23:59:59Z,158,297,295,157,297,158,294,157,8,23,0,0,0,0,0,0,0,297,0,158,0,297,0,158,0,0,0,0,0,0,0,0,264,15,4,130,18,15,272,15,0,136,30,0,274,10,0,139,15,0,271,15,0,136,30,0,274,9,0,139,14,0,274,9,0,140,15,0,275,8,0,140,14,0,0,297,0,1,158,0,275,8,0,139,14,0,275,8,0,139,14,0,0,297,0,0,158,0,0,297,0,0,158,0,2,293,0,14,154,0,275,8,0,140,14,0,260,6,31,134,17,30
2017-07-19T23:59:59Z,158,297,295,157,297,158,295,157,9,23,0,0,0,0,0,0,1,296,1,157,0,297,0,158,0,0,0,0,0,0,0,0,262,16,5,129,20,16,270,17,0,136,33,0,274,10,0,138,16,0,269,17,0,136,33,0,272,11,0,138,17,0,273,10,0,138,16,0,273,10,0,138,16,0,0,297,0,1,158,0,272,11,0,137,17,0,272,11,0,137,17,0,0,297,0,0,158,0,0,297,0,0,158,0,2,293,0,13,155,0,273,10,0,138,16,0,260,6,31,134,17,30
2017-07-20T23:59:59Z,158,296,294,157,296,158,293,157,7,22,0,0,0,0,0,0,1,295,1,157,0,296,0,158,0,0,0,0,0,0,0,0,264,14,5,131,18,16,272,14,0,137,30,0,274,9,0,140,15,0,270,15,0,138,31,0,273,9,0,140,15,0,273,9,0,140,15,0,272,10,0,140,16,0,0,296,0,1,158,0,272,10,0,139,16,0,272,10,0,138,16,0,1,295,0,1,157,1,0,295,1,1,157,1,2,292,0,14,155,0,273,9,0,139,15,0,260,6,30,134,17,31
2017-07-21T23:59:58Z,155,294,292,154,294,155,292,154,7,22,0,0,0,0,0,0,0,294,0,155,0,294,0,155,0,0,0,0,0,0,0,0,264,11,6,130,16,17,272,13,0,137,30,0,273,8,0,139,15,0,270,13,0,137,30,0,273,7,0,139,14,0,273,7,0,138,14,0,273,8,0,139,15,0,0,294,0,1,155,0,273,7,0,138,14,0,272,8,0,137,15,0,0,294,0,0,155,0,0,294,0,0,155,0,1,291,0,12,152,0,273,7,0,138,14,0,258,5,31,132,16,32
2017-07-22T23:59:59Z,155,293,291,154,293,155,290,154,6,21,0,0,0,0,0,0,0,293,0,155,0,293,0,155,0,0,0,0,0,0,0,0,263,12,5,130,17,16,272,12,0,137,28,0,273,7,0,139,13,0,270,12,0,137,28,0,271,8,0,139,14,0,272,7,0,138,13,0,273,7,0,139,13,0,0,293,0,1,155,0,271,8,0,138,14,0,272,7,0,137,13,0,0,293,0,0,155,0,0,293,0,0,155,0,1,290,0,12,152,0,271,8,0,138,14,0,257,5,31,132,16,30
2017-07-23T23:59:59Z,155,293,291,154,293,155,291,154,7,21,0,0,0,0,0,0,0,293,0,155,0,293,0,155,0,0,0,0,0,0,0,0,265,11,4,131,16,15,271,13,0,137,29,0,272,8,0,139,14,0,269,13,0,137,29,0,271,8,0,139,14,0,272,7,0,138,13,0,272,8,0,139,14,0,0,293,0,1,155,0,272,7,0,139,14,0,272,7,0,138,14,0,0,293,0,0,155,0,0,293,0,0,155,0,1,290,0,12,152,0,272,7,0,139,14,0,257,5,31,132,16,30
2017-07-24T23:59:59Z,155,293,291,154,293,155,291,154,6,20,0,0,0,0,0,0,0,293,0,155,0,293,0,155,0,0,0,0,0,0,0,0,265,10,5,131,15,16,273,11,0,138,27,0,273,7,0,140,13,0,270,12,0,138,28,0,272,7,0,140,13,0,273,6,0,139,12,0,274,6,0,140,12,0,0,293,0,1,155,0,273,6,0,139,12,0,273,6,0,138,12,0,0,293,0,0,155,0,0,293,0,0,155,0,2,289,0,13,151,0,273,6,0,139,12,0,258,4,31,133,16,30
2017-07-25T23:59:59Z,157,296,294,156,296,157,293,156,5,22,0,0,0,0,0,0,0,296,0,157,0,296,0,157,0,0,0,0,0,0,0,0,266,13,4,132,19,15,274,13,0,139,30,0,275,8,0,140,15,0,272,13,0,139,30,0,274,8,0,140,15,0,274,8,0,139,15,0,275,8,0,140,15,0,0,296,0,1,157,0,274,8,0,139,15,0,273,9,0,138,16,0,0,296,0,0,157,0,0,296,0,0,157,0,0,294,0,11,155,0,273,9,0,139,16,0,261,4,31,135,16,31
2017-07-26T23:59:59Z,157,295,293,156,295,157,292,156,5,20,0,0,0,0,0,0,0,295,0,157,0,295,0,157,0,0,0,0,0,0,0,0,266,12,4,133,19,15,274,12,0,140,30,0,274,8,0,141,16,0,271,13,0,139,30,0,273,8,0,140,15,0,273,8,0,139,15,0,274,8,0,140,15,0,0,295,0,1,157,0,272,9,0,139,16,0,273,8,0,138,15,0,0,295,0,0,157,0,0,295,0,0,157,0,0,293,0,11,155,0,273,8,0,139,15,0,260,4,31,135,15,31
2017-07-27T23:59:59Z,153,289,287,152,289,153,287,152,5,19,0,0,0,0,0,0,0,289,0,153,0,289,1,153,0,0,0,0,0,0,0,0,262,11,3,130,16,14,268,12,0,136,28,1,268,8,0,137,14,0,267,11,0,136,27,1,267,8,0,137,14,0,267,8,0,136,14,0,269,7,0,137,13,0,0,289,0,1,153,1,267,8,0,136,14,0,268,7,0,135,13,0,0,289,0,0,153,0,0,289,0,0,153,0,1,286,0,13,151,0,267,8,0,136,14,1,256,3,30,132,14,30
2017-07-28T23:59:59Z,156,291,289,155,291,156,289,155,5,19,0,0,0,0,0,0,1,290,1,155,0,291,0,156,0,0,0,0,0,0,0,0,261,13,4,130,17,15,269,13,0,137,27,0,268,10,0,138,15,0,267,13,0,137,28,0,268,9,0,138,14,0,267,10,0,137,15,0,269,9,0,138,14,0,0,291,0,1,156,0,267,10,0,137,15,0,267,10,0,136,15,0,0,291,0,0,156,0,0,291,0,0,156,0,1,288,0,12,154,0,268,9,0,137,14,0,257,4,30,134,15,30
2017-07-29T23:59:59Z,155,289,287,154,289,155,287,154,6,19,0,0,0,0,0,0,1,288,1,154,0,289,0,155,0,0,0,0,0,0,0,0,258,14,4,129,18,14,267,13,0,136,27,0,266,10,0,137,15,0,265,13,0,136,27,0,265,10,0,137,15,1,266,9,0,136,14,0,267,9,0,137,14,0,0,289,0,1,155,0,265,10,0,136,15,0,266,9,0,135,14,0,0,289,0,0,155,0,0,289,0,0,155,0,0,287,0,10,153,1,267,8,0,137,14,0,254,5,30,132,16,29
2017-07-30T23:59:59Z,155,290,288,154,290,155,288,154,5,20,0,0,0,0,0,0,1,289,1,154,0,290,0,155,0,0,0,0,0,0,0,0,259,14,4,129,19,14,268,13,0,136,28,0,267,10,0,137,16,0,265,14,0,136,29,0,267,9,0,137,15,0,267,9,0,136,15,0,267,10,0,137,16,0,0,290,0,1,155,0,266,10,0,136,16,0,267,9,0,135,15,0,0,290,0,0,155,0,0,290,0,0,155,0,0,288,0,10,153,0,268,8,0,137,15,0,255,4,31,133,15,30
2017-07-31T23:59:59Z,155,290,288,154,290,155,288,154,5,19,0,0,0,0,0,0,1,289,1,154,0,290,0,155,0,0,0,0,0,0,0,0,258,14,5,129,19,15,267,14,0,136,29,0,267,10,0,137,16,0,266,13,0,136,28,0,266,10,0,137,16,0,267,9,0,136,15,0,268,9,0,137,15,0,0,290,0,1,155,0,267,9,0,136,15,0,266,10,0,135,16,0,0,290,0,0,155,0,0,290,0,0,155,0,1,287,0,11,153,0,266,10,0,136,16,0,254,5,31,133,16,29
2017-08-01T23:59:59Z,151,286,284,150,286,151,284,150,5,18,0,0,0,0,0,0,0,286,0,151,0,286,0,151,0,0,0,0,0,0,0,0,258,12,3,128,16,13,265,12,0,134,26,0,266,7,0,135,12,0,263,12,0,134,26,0,264,8,0,135,13,0,265,7,0,134,12,0,266,7,0,135,12,0,0,286,0,1,151,0,265,7,0,134,12,0,264,8,0,133,13,1,0,286,0,0,151,0,0,286,0,0,151,1,0,284,0,10,149,0,265,7,0,134,12,0,253,3,30,131,13,28
2017-08-02T23:59:59Z,150,283,281,149,283,150,281,149,6,19,0,0,0,0,0,0,0,283,0,150,0,283,0,150,0,0,0,0,0,0,0,0,256,12,2,127,16,12,261,13,0,132,27,0,262,8,0,133,13,0,259,13,0,132,27,0,261,8,0,133,13,0,261,8,0,132,13,0,262,8,0,133,13,0,0,283,0,1,150,0,260,9,0,132,14,0,260,9,0,131,14,0,0,283,0,0,150,0,0,283,0,0,150,0,0,281,0,10,148,0,261,8,0,133,14,0,249,4,30,129,15,28
2017-08-03T23:59:59Z,153,286,284,152,286,153,284,152,5,18,0,0,0,0,0,0,0,286,0,153,0,286,0,153,0,0,0,0,0,0,0,0,258,12,3,129,16,13,265,12,0,135,26,0,265,8,0,136,13,0,262,13,0,135,27,0,263,9,0,136,14,0,264,8,0,135,13,0,264,9,0,136,14,0,0,286,0,1,153,0,264,8,0,136,14,0,265,7,0,135,13,0,0,286,0,0,153,0,0,286,0,0,153,0,1,283,0,11,151,0,264,8,0,136,14,0,252,4,30,132,14,28
2017-08-04T23:59:58Z,153,286,284,152,286,153,283,152,6,19,0,0,0,0,0,0,0,286,0,153,0,286,0,153,0,0,0,0,0,0,0,0,258,12,3,129,16,13,265,12,0,135,26,0,264,9,0,136,14,0,263,12,0,135,26,0,263,9,0,136,14,0,264,8,0,135,13,0,265,8,0,136,13,0,0,286,0,1,153,0,263,9,0,135,14,0,264,8,0,134,13,0,0,286,0,0,153,0,0,286,0,0,153,0,0,284,0,10,151,0,263,9,0,135,14,0,252,4,30,132,14,28
2017-08-05T23:59:59Z,151,285,283,150,285,151,283,150,4,17,0,0,0,0,0,0,0,285,0,151,0,285,0,151,0,0,0,0,0,0,0,0,257,12,3,128,16,13,264,12,0,134,26,0,264,8,0,135,13,0,262,12,0,134,26,0,264,7,0,135,12,0,263,8,0,134,13,0,264,8,0,135,13,0,0,285,0,1,151,0,263,8,0,134,13,0,263,8,0,133,13,0,0,285,0,0,151,0,0,285,0,0,151,0,0,283,0,10,149,0,263,8,0,134,13,0,252,3,30,131,13,28
2017-08-06T23:59:59Z,153,286,284,152,286,153,284,152,5,19,0,0,0,0,0,0,1,285,1,152,0,286,0,153,0,0,0,0,0,0,0,0,259,12,2,130,18,13,265,12,0,135,28,0,263,10,0,135,16,0,262,13,0,134,28,0,263,9,0,135,15,0,262,10,0,134,16,0,263,10,0,135,16,0,0,286,0,1,153,0,263,9,0,135,16,0,263,9,0,133,15,0,0,286,0,0,153,0,0,286,0,0,153,0,1,283,0,12,150,0,262,10,0,134,16,0,253,4,29,132,13,28
2017-08-07T23:59:59Z,154,286,284,153,286,154,283,153,4,18,0,0,0,0,0,0,1,285,1,153,0,286,0,154,0,0,0,0,0,0,0,0,256,14,3,129,19,14,264,13,0,135,28,0,264,9,0,136,15,0,262,13,0,135,28,0,263,9,0,136,15,0,262,10,0,135,16,0,263,10,0,136,16,0,0,286,0,1,154,0,262,10,0,135,16,0,262,10,0,134,16,0,0,286,0,0,154,0,0,286,0,0,154,0,1,283,0,12,152,0,263,9,0,135,15,0,254,4,28,133,13,28
2017-08-08T23:59:59Z,154,288,286,153,288,154,286,153,4,19,0,0,0,0,0,0,0,288,0,154,0,288,0,154,0,0,0,0,0,0,0,0,260,12,3,130,18,14,267,12,0,136,28,0,266,9,0,137,16,0,265,12,0,136,28,0,266,8,0,137,15,0,266,8,0,136,15,0,266,9,0,137,16,0,0,288,0,1,154,0,266,8,0,136,15,0,265,9,0,135,16,0,0,288,0,0,154,0,0,288,0,0,154,0,1,285,0,12,152,0,266,8,0,136,15,0,253,4,31,132,14,29
2017-08-09T23:59:59Z,153,287,285,152,287,153,284,152,4,19,0,0,0,0,0,0,0,287,0,153,0,287,0,153,0,0,0,0,0,0,0,0,260,12,2,131,20,13,266,12,0,136,30,0,267,7,0,137,16,0,264,12,0,135,29,0,265,8,0,136,16,0,264,9,0,135,17,0,266,8,0,136,16,0,0,287,0,1,153,0,265,8,0,136,17,0,266,7,0,135,16,0,0,287,0,0,153,0,0,287,0,0,153,0,0,285,0,11,151,0,265,8,0,135,16,0,252,4,31,131,15,31
2017-08-10T23:59:59Z,152,283,281,151,283,152,281,151,6,20,0,0,0,0,0,0,0,283,0,152,0,283,0,152,0,0,0,0,0,0,0,0,254,12,4,127,18,16,262,12,0,134,28,1,262,8,0,135,15,0,260,12,0,134,28,0,261,8,0,135,15,0,260,9,0,134,16,0,261,9,0,135,16,0,0,283,0,1,152,0,261,8,0,134,15,0,260,9,0,133,16,0,0,283,0,0,152,0,0,283,0,0,152,0,1,280,0,12,149,0,261,8,0,134,15,0,247,4,32,129,14,30
2017-08-11T23:59:59Z,152,282,280,151,282,152,280,151,5,18,0,0,0,0,0,0,0,282,0,152,0,282,0,152,0,0,0,0,0,0,0,0,251,13,5,127,19,14,261,12,0,134,27,0,260,9,0,135,16,0,259,12,0,134,27,0,260,8,0,135,15,0,259,9,0,134,16,0,261,8,0,135,15,0,0,282,0,1,152,0,260,8,0,134,15,0,260,8,0,133,15,0,0,282,0,0,152,0,0,282,0,0,152,0,1,279,0,11,150,0,260,8,0,134,15,0,247,4,31,129,13,30
2017-08-12T23:59:59Z,153,282,280,152,282,153,280,152,3,18,0,0,0,0,0,0,0,282,0,153,0,282,0,153,0,0,0,0,0,0,0,0,254,11,4,129,18,15,261,12,0,136,28,1,261,8,0,137,16,1,259,12,0,136,28,1,260,8,0,137,16,1,260,8,0,136,16,1,261,8,0,137,16,1,0,282,0,1,153,1,261,7,0,136,15,1,260,8,0,135,16,1,0,282,0,0,153,1,0,282,0,0,153,1,1,279,0,11,151,1,260,8,0,136,16,0,248,3,31,131,13,31
2017-08-13T23:59:59Z,155,287,285,154,287,155,285,154,6,20,0,0,0,0,0,0,0,287,0,155,0,287,0,155,0,0,0,0,0,0,0,0,257,13,4,130,19,14,265,13,0,137,29,0,265,9,0,138,17,0,263,13,0,137,29,0,264,9,0,138,17,0,264,9,0,137,17,0,266,8,0,138,16,0,0,287,0,1,155,0,264,9,0,137,17,0,265,8,0,136,16,0,0,287,0,0,155,0,0,287,0,0,155,0,1,284,0,11,153,0,265,8,0,138,17,0,251,4,32,132,13,31
2017-08-14T23:59:59Z,157,290,288,156,290,157,288,156,5,18,0,0,0,0,0,0,0,290,0,157,0,290,0,157,0,0,0,0,0,0,0,0,261,12,4,132,18,14,269,12,0,139,27,0,268,9,0,140,16,0,267,12,0,139,27,0,268,8,0,140,15,0,268,8,0,139,15,0,269,8,0,140,15,0,0,290,0,1,157,0,268,8,0,139,15,0,267,9,0,138,16,0,0,290,0,0,157,0,0,290,0,0,157,0,0,288,0,10,155,0,268,8,0,139,15,0,253,5,32,133,14,30
2017-08-15T23:59:58Z,159,298,296,158,298,159,296,158,4,18,0,0,0,0,0,0,0,298,0,159,0,298,0,159,0,0,0,0,0,0,0,0,270,11,4,135,18,14,278,11,0,142,27,0,277,8,0,143,16,0,274,13,0,141,28,0,275,9,0,142,16,0,275,9,0,141,16,0,276,9,0,142,16,0,0,298,0,1,159,0,275,9,0,141,16,0,275,9,0,140,16,0,0,298,0,0,159,0,0,298,0,0,159,0,0,296,0,10,157,0,276,8,0,141,15,0,261,4,33,136,13,30
2017-08-16T23:59:59Z,158,296,294,157,296,158,294,157,5,18,0,0,0,0,0,0,0,296,0,158,0,296,1,158,0,0,0,0,0,0,0,0,267,12,4,134,19,14,275,12,0,141,28,0,276,7,0,142,15,0,274,11,0,141,27,0,275,7,0,142,15,0,274,8,0,141,16,0,276,7,0,142,15,0,0,296,0,1,158,0,275,7,0,141,15,0,275,7,0,140,15,0,0,296,0,1,158,0,0,296,0,0,158,0,1,293,0,11,155,0,274,8,0,141,16,0,260,4,32,135,14,31
2017-08-17T23:59:59Z,157,295,293,156,295,157,293,156,5,18,0,0,0,0,0,0,0,295,0,157,0,295,0,157,0,0,0,0,0,0,0,0,268,11,4,133,17,14,274,12,0,140,28,0,275,7,0,141,14,0,274,11,0,140,27,0,275,7,0,142,14,0,275,7,0,141,14,0,276,7,0,142,14,0,0,295,0,1,157,0,275,7,0,141,14,0,275,7,0,140,14,0,0,295,0,0,157,0,0,295,0,0,157,0,0,293,0,10,155,0,275,7,0,140,14,0,258,5,32,134,15,30